Flag for Sierra Leone Weather past 2 weeks in Kenema, Sierra Leone

Now
75 °F

Partly cloudy.


Feels Like: 74 °F
Forecast: 69 / 80 °F
Wind: No wind

Location: Roberts Field

Current Time: Aug 31, 2015 at 5:23:33 AM

Latest Report: Aug 31, 2015 at 5:00 AM


Visibility: N/A

Pressure: 29.98 "Hg

Humidity: 94%

Dew point: 73 °F

Location of KenemaLocation

Historic Weather in Kenema — Graph

°F

Kenema temperature yesterday

Maximum temperature yesterday: 82 °F (at 2:30 PM)
Minimum temperature yesterday: 75 °F (at 1:00 AM)
Average temperature yesterday: 78 °F

Past Weeks' High & Low Weather Summary

 TemperatureHumidityPressure
High84 °F (Aug 26, 12:30 PM)100% (Aug 17, 9:30 AM)30.07 "Hg (Aug 17, 9:30 AM)
Low72 °F (Aug 25, 6:30 AM)74% (Aug 26, 12:30 PM)29.86 "Hg (Aug 18, 5:00 PM)
Average78 °F91%29.94 "Hg
* Reported Aug 16 4:00 AM — Aug 31 4:30 AM, Kenema, Weather by CustomWeather, © 2015

Note: Actual official high and low records may vary slightly from our data, if they occured in-between our weather recording intervals... More about our weather records

Advertising

Kenema weather history for previous 24 hours

 ConditionsComfort  
Time TempWeatherWind HumidityBarometerVisibility
4:30 AM
Mon, Aug 31
75 °FPassing clouds.No wind94%29.98 "HgN/A
3:30 AM75 °FPassing clouds.No wind94%29.98 "HgN/A
3:00 AM75 °FPassing clouds.No wind94%29.98 "HgN/A
2:30 AM75 °FPassing clouds.No wind94%30.01 "HgN/A
2:00 AM75 °FPassing clouds.No wind94%30.01 "HgN/A
1:30 AM75 °FPassing clouds.No wind94%30.01 "HgN/A
1:00 AM75 °FPassing clouds.No wind94%30.04 "HgN/A
12:30 AM75 °FPassing clouds.No wind94%30.04 "HgN/A
12:00 AM75 °FPassing clouds.No wind94%30.04 "HgN/A
11:30 PM
Sun, Aug 30
77 °FPassing clouds.6 mph89%30.04 "HgN/A
11:00 PM77 °FPassing clouds.6 mph89%30.04 "HgN/A
10:00 PM77 °FPassing clouds.No wind89%30.04 "HgN/A
9:30 PM77 °FPassing clouds.No wind89%30.01 "HgN/A
9:00 PM77 °FPassing clouds.No wind83%30.01 "HgN/A
8:30 PM77 °FPassing clouds.3 mph89%29.98 "HgN/A
7:30 PM77 °FPartly sunny.8 mph83%29.98 "HgN/A
7:00 PM77 °FScattered clouds.5 mph89%29.98 "HgN/A
6:30 PM79 °FScattered clouds.5 mph84%29.98 "HgN/A
6:00 PM81 °FPartly sunny.9 mph79%29.98 "HgN/A
5:30 PM81 °FPartly sunny.8 mph79%29.98 "HgN/A
5:00 PM81 °FPartly sunny.10 mph79%29.98 "HgN/A
4:30 PM82 °FPartly sunny.13 mph74%29.98 "HgN/A
4:00 PM82 °FPartly sunny.12 mph74%29.98 "HgN/A
3:30 PM82 °FPartly sunny.10 mph74%29.98 "HgN/A
3:00 PM82 °FPartly sunny.10 mph79%29.98 "HgN/A
2:30 PM82 °FPartly sunny.10 mph74%29.98 "HgN/A
1:00 PM81 °FPartly sunny.8 mph84%30.01 "HgN/A
12:00 PM81 °FPartly sunny.7 mph84%30.04 "HgN/A
11:30 AM79 °FPartly sunny.5 mph89%30.04 "HgN/A
11:00 AM77 °FPartly sunny.5 mph94%30.07 "HgN/A
10:30 AM77 °FPartly sunny.5 mph94%30.04 "HgN/A
10:00 AM79 °FPartly sunny.5 mph89%30.04 "HgN/A
9:30 AM79 °FPartly sunny.5 mph89%30.04 "HgN/A
9:00 AM79 °FPartly sunny.No wind89%30.04 "HgN/A
8:30 AM75 °FPartly sunny.No wind94%30.04 "HgN/A
8:00 AM75 °FPartly sunny.No wind94%30.01 "HgN/A
7:30 AM75 °FPassing clouds.No wind94%30.01 "HgN/A
7:00 AM75 °FPassing clouds.No wind94%30.01 "HgN/A
6:30 AM75 °FPassing clouds.No wind94%30.01 "HgN/A
6:00 AM75 °FPassing clouds.No wind94%30.01 "HgN/A
5:30 AM75 °FPassing clouds.No wind94%29.98 "HgN/A
5:00 AM75 °FPassing clouds.No wind94%29.98 "HgN/A
Weather by CustomWeather, © 2015

See weather overviewHow to use our weather pages